Precipitable_Water
0.34 0.33 0.29 0.32 0.36 0.32 0.28 0.26 0.25 0.30 0.30 0.26 0.24 0.28 0.32 0.38 0.41 0.43 0.46 0.48 0.52 0.58 0.73 0.85 0.92 0.96 1.05 1.10 1.12 1.19 1.21 1.18 1.18 1.09 0.95 0.91 0.90 0.92 0.95 0.97 0.95 0.93 0.92 0.91
0.37 0.30 0.33 0.33 0.34 0.31 0.29 0.26 0.26 0.28 0.31 0.25 0.26 0.27 0.34 0.38 0.40 0.43 0.46 0.51 0.56 0.63 0.70 0.79 0.87 0.96 0.97 0.99 1.01 0.98 0.92 0.91 0.90 0.86 0.87 0.88 0.89 0.91 0.90 0.89 0.88 0.88 0.87 0.86
0.29 0.30 0.33 0.34 0.32 0.30 0.30 0.27 0.28 0.28 0.30 0.30 0.27 0.27 0.32 0.42 0.46 0.49 0.54 0.58 0.61 0.65 0.67 0.74 0.78 0.81 0.84 0.82 0.80 0.79 0.79 0.77 0.78 0.78 0.79 0.79 0.81 0.79 0.77 0.79 0.79 0.81 0.80 0.76
0.28 0.33 0.32 0.29 0.22 0.26 0.23 0.31 0.33 0.29 0.24 0.15 0.24 0.18 0.32 0.37 0.41 0.46 0.50 0.55 0.60 0.64 0.66 0.67 0.68 0.70 0.70 0.71 0.75 0.74 0.75 0.77 0.77 0.76 0.71 0.65 0.61 0.60 0.66 0.68 0.72 0.71 0.71 0.69
0.24 0.28 0.27 0.27 0.25 0.26 0.22 0.28 0.25 0.24 0.22 0.20 0.22 0.22 0.29 0.39 0.36 0.43 0.49 0.57 0.64 0.69 0.69 0.69 0.70 0.69 0.71 0.73 0.75 0.75 0.73 0.71 0.69 0.67 0.68 0.66 0.65 0.67 0.68 0.69 0.68 0.68 0.69 0.69
0.30 0.39 0.32 0.31 0.33 0.31 0.32 0.26 0.26 0.29 0.28 0.19 0.30 0.28 0.26 0.36 0.42 0.49 0.55 0.62 0.66 0.70 0.73 0.72 0.70 0.70 0.67 0.68 0.68 0.69 0.67 0.67 0.69 0.69 0.70 0.68 0.68 0.67 0.64 0.64 0.65 0.66 0.65 0.62
0.27 0.33 0.32 0.33 0.28 0.34 0.30 0.26 0.21 0.21 0.24 0.25 0.37 0.35 0.39 0.47 0.51 0.56 0.57 0.63 0.67 0.72 0.73 0.69 0.70 0.70 0.73 0.73 0.73 0.72 0.72 0.68 0.71 0.71 0.71 0.70 0.69 0.67 0.65 0.63 0.60 0.57 0.53 0.53
0.25 0.24 0.31 0.31 0.33 0.29 0.29 0.28 0.20 0.14 0.17 0.19 0.32 0.27 0.36 0.53 0.59 0.63 0.68 0.70 0.72 0.74 0.79 0.77 0.76 0.76 0.74 0.74 0.76 0.76 0.75 0.73 0.73 0.69 0.67 0.66 0.64 0.62 0.60 0.56 0.54 0.51 0.51 0.52
0.27 0.29 0.36 0.27 0.32 0.36 0.28 0.29 0.31 0.22 0.27 0.21 0.27 0.35 0.46 0.54 0.57 0.64 0.69 0.73 0.72 0.75 0.74 0.72 0.74 0.75 0.77 0.77 0.78 0.78 0.75 0.71 0.69 0.68 0.66 0.63 0.61 0.58 0.57 0.54 0.50 0.50 0.51 0.50
0.36 0.26 0.30 0.31 0.35 0.35 0.29 0.30 0.22 0.23 0.13 0.13 0.23 0.29 0.31 0.41 0.48 0.55 0.56 0.60 0.64 0.68 0.72 0.73 0.74 0.76 0.77 0.77 0.75 0.74 0.71 0.68 0.69 0.67 0.63 0.60 0.56 0.58 0.55 0.50 0.47 0.46 0.45 0.45
0.38 0.31 0.23 0.31 0.27 0.21 0.24 0.24 0.26 0.26 0.24 0.16 0.16 0.23 0.40 0.43 0.49 0.52 0.58 0.63 0.65 0.67 0.68 0.72 0.75 0.76 0.75 0.75 0.72 0.69 0.68 0.65 0.62 0.61 0.58 0.56 0.55 0.50 0.44 0.41 0.40 0.40 0.40 0.39
0.37 0.29 0.20 0.22 0.30 0.32 0.27 0.25 0.24 0.15 0.16 0.23 0.23 0.21 0.44 0.45 0.49 0.54 0.57 0.62 0.67 0.72 0.73 0.76 0.73 0.74 0.71 0.69 0.66 0.63 0.61 0.59 0.57 0.54 0.51 0.45 0.40 0.38 0.39 0.40 0.38 0.38 0.36 0.40
0.32 0.24 0.16 0.19 0.28 0.31 0.22 0.27 0.26 0.26 0.26 0.19 0.18 0.20 0.43 0.49 0.49 0.53 0.55 0.60 0.65 0.68 0.70 0.71 0.70 0.67 0.65 0.63 0.61 0.57 0.54 0.51 0.50 0.47 0.42 0.38 0.36 0.37 0.40 0.42 0.42 0.41 0.41 0.41
0.37 0.25 0.18 0.13 0.16 0.20 0.16 0.20 0.23 0.22 0.18 0.19 0.21 0.24 0.33 0.43 0.46 0.52 0.57 0.61 0.64 0.64 0.63 0.63 0.63 0.60 0.58 0.56 0.53 0.51 0.50 0.47 0.44 0.40 0.39 0.38 0.38 0.37 0.38 0.43 0.43 0.44 0.46 0.42
0.32 0.19 0.24 0.24 0.23 0.22 0.19 0.19 0.20 0.18 0.19 0.17 0.23 0.27 0.36 0.44 0.48 0.53 0.58 0.60 0.59 0.59 0.60 0.60 0.59 0.56 0.53 0.47 0.44 0.43 0.43 0.41 0.42 0.40 0.40 0.39 0.40 0.40 0.43 0.43 0.44 0.45 0.47 0.41
0.31 0.20 0.24 0.18 0.22 0.18 0.17 0.19 0.24 0.24 0.25 0.27 0.30 0.32 0.47 0.52 0.55 0.54 0.56 0.58 0.58 0.58 0.57 0.54 0.50 0.47 0.43 0.43 0.44 0.42 0.37 0.37 0.39 0.39 0.38 0.42 0.38 0.39 0.38 0.40 0.42 0.40 0.40 0.45
0.25 0.21 0.18 0.11 0.18 0.18 0.13 0.20 0.23 0.24 0.29 0.28 0.24 0.34 0.46 0.47 0.50 0.54 0.56 0.57 0.55 0.53 0.51 0.48 0.45 0.44 0.43 0.39 0.35 0.31 0.32 0.32 0.32 0.30 0.32 0.31 0.30 0.31 0.35 0.38 0.37 0.39 0.45 0.41
0.26 0.23 0.19 0.12 0.16 0.09 0.21 0.29 0.27 0.26 0.31 0.35 0.38 0.43 0.49 0.52 0.56 0.59 0.60 0.54 0.52 0.50 0.48 0.46 0.44 0.39 0.33 0.30 0.29 0.29 0.28 0.27 0.24 0.25 0.27 0.29 0.31 0.32 0.35 0.35 0.34 0.38 0.41 0.38
0.35 0.25 0.15 0.12 0.13 0.16 0.20 0.27 0.27 0.27 0.28 0.41 0.40 0.46 0.51 0.54 0.56 0.56 0.60 0.57 0.54 0.50 0.47 0.43 0.37 0.32 0.29 0.28 0.27 0.26 0.23 0.22 0.22 0.24 0.26 0.29 0.33 0.31 0.32 0.33 0.36 0.37 0.38 0.33
0.36 0.32 0.19 0.18 0.12 0.10 0.19 0.30 0.37 0.37 0.21 0.42 0.46 0.48 0.50 0.53 0.42 0.46 0.54 0.53 0.49 0.46 0.42 0.35 0.31 0.29 0.28 0.27 0.25 0.22 0.21 0.22 0.23 0.26 0.28 0.32 0.33 0.32 0.33 0.36 0.38 0.35 0.32 0.33
0.25 0.26 0.20 0.18 0.16 0.18 0.26 0.35 0.40 0.20 0.21 0.44 0.50 0.52 0.52 0.48 0.51 0.54 0.54 0.49 0.47 0.39 0.34 0.31 0.29 0.27 0.25 0.24 0.23 0.21 0.22 0.23 0.27 0.29 0.31 0.33 0.33 0.35 0.37 0.38 0.33 0.30 0.32 0.32
0.20 0.18 0.18 0.22 0.18 0.14 0.34 0.35 0.26 0.28 0.41 0.49 0.52 0.54 0.55 0.57 0.54 0.50 0.49 0.43 0.38 0.33 0.31 0.29 0.26 0.23 0.24 0.23 0.23 0.21 0.22 0.25 0.28 0.31 0.33 0.32 0.33 0.35 0.35 0.31 0.33 0.35 0.32 0.30
0.21 0.23 0.20 0.23 0.20 0.32 0.39 0.38 0.45 0.49 0.50 0.53 0.55 0.60 0.59 0.55 0.50 0.47 0.42 0.39 0.34 0.31 0.29 0.26 0.23 0.22 0.21 0.23 0.23 0.21 0.24 0.28 0.32 0.33 0.33 0.33 0.35 0.35 0.36 0.32 0.31 0.31 0.30 0.23
0.31 0.37 0.30 0.30 0.33 0.37 0.44 0.51 0.54 0.57 0.55 0.60 0.64 0.60 0.55 0.49 0.47 0.42 0.39 0.34 0.31 0.29 0.26 0.25 0.22 0.20 0.21 0.23 0.24 0.25 0.28 0.32 0.34 0.33 0.33 0.32 0.33 0.35 0.34 0.34 0.33 0.30 0.23 0.21
0.27 0.34 0.31 0.32 0.39 0.44 0.48 0.52 0.53 0.56 0.61 0.63 0.60 0.55 0.52 0.47 0.43 0.40 0.34 0.31 0.30 0.27 0.25 0.22 0.21 0.21 0.21 0.23 0.23 0.26 0.30 0.33 0.33 0.33 0.33 0.32 0.34 0.34 0.33 0.32 0.28 0.23 0.23 0.22
0.33 0.28 0.26 0.23 0.36 0.39 0.42 0.51 0.58 0.60 0.58 0.55 0.53 0.50 0.47 0.45 0.40 0.35 0.32 0.30 0.27 0.24 0.22 0.21 0.21 0.21 0.22 0.22 0.24 0.26 0.31 0.32 0.30 0.31 0.32 0.32 0.33 0.32 0.30 0.25 0.23 0.25 0.24 0.24
Wind_Speed
8 8 8 9 7 6 4 4 9 7 4 2 4 6 5 7 5 5 4 3 4 3 5 5 6 6 7 8 9 12 14 19 21 22 23 22 23 25 25 26 27 28 28 29
6 8 8 6 4 4 5 7 6 4 1 2 2 5 5 7 7 7 6 3 4 5 6 7 9 10 11 12 14 16 19 20 20 21 22 23 25 26 27 28 29 30 31 32
9 7 5 6 3 4 2 4 5 5 5 3 2 5 6 5 6 6 5 4 5 6 7 10 11 12 13 15 16 17 19 20 21 23 25 26 28 29 30 30 31 31 33 35
7 4 6 5 3 4 4 5 6 5 5 7 6 9 10 10 8 8 7 7 7 7 8 9 11 13 14 15 17 19 21 22 24 26 27 28 28 29 30 31 32 34 36 38
6 5 3 3 4 4 6 6 6 6 6 6 9 7 12 11 10 11 10 9 8 9 9 10 11 12 13 15 18 20 22 24 25 26 26 27 28 30 31 33 34 36 39 40
6 5 3 5 4 3 5 5 6 6 6 6 9 8 11 12 13 11 11 10 10 11 12 12 12 12 14 17 19 21 22 23 25 26 27 28 30 32 34 36 39 40 41 42
3 2 2 1 2 1 2 1 2 2 3 6 7 6 7 12 10 10 10 11 12 13 13 13 14 15 18 21 20 21 22 24 25 26 28 30 33 35 38 40 42 42 44 45
5 3 1 0 3 1 1 2 2 1 2 6 7 5 9 8 6 8 10 10 12 14 17 17 19 20 21 20 21 23 24 24 25 27 29 33 36 39 42 43 43 44 44 46
6 4 2 3 2 2 1 3 2 3 4 4 5 6 7 6 6 10 14 18 18 18 17 19 19 20 20 22 23 23 24 25 27 30 34 38 41 42 44 43 44 45 47 49
5 5 4 4 3 3 4 2 3 5 4 5 8 6 9 9 11 12 12 13 13 14 18 17 17 18 20 21 23 24 26 29 32 36 39 42 43 44 45 46 47 47 49 49
6 5 4 3 2 2 2 2 3 3 4 4 6 9 9 5 8 10 11 12 13 14 13 14 17 19 20 23 25 28 31 34 37 40 42 44 45 46 46 47 48 49 50 50
5 6 5 4 2 2 1 1 2 4 6 7 7 11 8 7 8 9 10 12 13 14 15 17 17 20 24 27 30 33 36 37 40 41 43 45 47 49 49 50 51 50 49 49
6 5 4 2 4 3 3 3 5 6 7 7 7 10 9 10 11 11 10 12 12 13 14 17 21 24 28 32 35 37 39 40 42 44 46 48 49 51 51 51 51 50 50 49
7 6 6 6 5 5 5 6 7 7 8 10 11 14 12 11 10 10 10 11 12 15 17 21 24 28 31 34 37 38 40 41 44 46 48 50 51 52 52 50 52 51 50 48
7 6 5 5 5 6 8 8 11 11 11 10 14 12 12 10 10 11 12 13 16 18 21 25 28 31 33 35 37 39 41 43 46 48 49 50 52 53 53 52 50 51 49 45
7 8 7 7 8 8 10 12 11 10 11 11 11 13 12 12 13 14 15 17 20 22 25 28 30 31 33 36 39 42 43 44 46 48 52 52 54 53 52 50 51 50 46 40
8 8 7 10 10 11 11 10 11 11 13 14 14 14 13 14 15 16 18 20 22 24 26 29 30 33 36 38 40 42 44 47 49 51 51 52 52 51 49 50 49 47 37 29
8 8 9 10 10 10 12 13 12 9 13 13 13 14 15 17 18 19 21 22 24 25 28 30 33 35 38 39 42 45 48 51 51 50 50 50 51 51 51 50 43 33 27 28
10 10 9 10 11 14 13 13 12 13 15 16 15 15 17 19 20 22 24 24 26 28 30 32 34 37 39 42 45 48 51 50 49 49 50 52 52 52 49 42 35 31 28 26
10 10 11 11 11 14 15 13 13 15 20 15 16 18 20 20 22 25 26 26 27 29 31 33 36 38 42 46 48 49 50 50 49 50 51 52 51 48 41 33 28 25 23 21
12 13 13 14 15 19 18 16 14 15 21 17 19 21 22 23 25 26 26 26 28 29 32 35 38 42 45 47 49 49 50 50 50 50 50 49 44 38 31 26 22 20 17 16
14 13 14 14 15 20 15 14 18 21 21 21 22 24 25 26 25 26 27 27 29 32 35 38 41 43 45 47 48 50 51 50 50 49 47 43 36 32 26 22 20 20 17 17
16 17 16 17 18 20 20 22 24 23 23 24 24 26 27 26 26 27 27 29 32 34 38 41 43 45 46 47 49 51 51 50 47 46 43 38 32 28 24 21 19 18 17 18
19 19 20 19 22 23 23 24 24 24 25 25 26 27 27 26 26 27 29 31 34 37 40 43 44 45 46 48 49 50 51 48 46 44 38 33 28 25 20 19 18 16 17 19
19 19 21 24 23 23 25 26 25 25 25 26 27 27 27 26 27 29 31 34 37 40 42 43 44 45 46 48 50 50 48 47 44 39 34 29 24 20 19 18 15 16 18 20
21 22 22 25 25 26 27 26 25 26 27 26 27 27 26 27 28 30 33 37 39 42 43 44 45 46 47 49 49 49 47 45 41 33 29 24 20 18 17 16 16 17 19 20
Wind_Direction
143 139 162 170 169 185 193 150 150 175 183 182 221 212 221 202 190 209 228 254 235 248 256 255 260 274 273 280 287 288 291 297 297 299 300 304 305 306 304 304 304 303 302 302
149 162 173 181 153 144 138 128 145 155 253 236 233 222 241 238 235 213 210 221 222 249 259 265 268 276 280 281 285 290 296 299 302 303 304 305 304 305 305 304 304 303 303 303
172 179 180 165 168 157 178 169 196 214 266 266 226 255 237 243 218 224 238 234 247 249 255 266 272 278 281 285 286 290 294 297 300 303 303 304 303 303 301 302 302 302 302 302
162 181 159 166 181 202 207 220 231 249 261 253 272 261 252 240 237 241 242 242 250 254 263 271 276 282 284 286 289 292 293 297 300 303 304 305 305 305 303 302 301 302 302 302
186 167 165 182 220 222 222 248 256 260 267 274 284 260 254 238 249 249 251 250 251 256 263 273 279 283 288 292 295 297 298 298 300 302 304 304 305 307 306 303 302 302 302 302
172 194 201 217 239 250 267 272 284 271 270 280 277 261 267 251 252 252 249 251 263 266 272 277 277 284 294 300 299 300 302 303 304 305 305 306 307 308 308 307 305 304 303 303
185 194 233 231 221 313 22 13 307 321 305 253 293 298 283 276 239 242 243 259 270 274 276 275 279 287 296 299 297 299 303 304 306 307 309 309 309 310 310 310 307 306 305 305
176 202 191 324 149 191 348 95 151 218 265 282 315 298 295 274 254 249 255 262 278 283 281 278 285 291 297 297 300 301 305 306 307 309 310 311 311 310 310 310 308 308 307 305
166 169 161 134 121 139 346 70 95 74 352 339 309 312 308 288 254 257 258 274 276 274 278 283 289 293 299 302 305 305 307 309 309 309 309 311 311 310 311 310 309 309 307 306
175 153 173 162 110 74 94 99 35 6 359 332 319 294 292 280 279 284 284 286 285 285 292 288 295 301 304 307 309 309 308 309 309 310 310 311 311 311 311 310 310 309 308 308
179 170 190 149 157 179 15 7 21 16 359 339 330 310 315 304 303 297 294 291 292 297 298 298 304 306 309 310 309 308 308 309 310 310 311 311 311 311 311 311 310 310 308 308
186 168 166 181 202 227 235 268 1 352 323 336 332 314 303 311 313 297 297 294 298 297 298 299 303 306 310 310 309 308 309 310 310 311 312 312 312 311 309 310 311 310 309 308
190 187 180 258 275 277 277 291 325 334 334 310 331 319 305 311 324 316 304 302 299 299 302 303 306 308 309 311 311 310 310 310 311 312 312 313 313 312 309 308 309 309 309 308
195 194 206 219 236 249 272 300 317 319 324 315 303 306 305 310 314 312 303 298 295 298 301 304 306 308 310 312 312 312 312 311 312 312 313 313 313 312 310 308 309 308 309 309
208 212 233 248 276 278 281 290 303 301 301 308 311 314 321 316 308 309 303 301 301 302 305 306 308 309 311 314 315 314 314 313 313 313 314 313 314 313 313 310 310 310 307 306
234 236 252 267 287 295 286 297 296 299 309 307 320 321 313 317 315 312 309 306 306 306 307 309 310 311 314 315 316 316 317 317 317 317 317 315 316 314 314 311 310 310 306 302
237 239 255 267 285 292 296 275 292 304 312 306 302 307 307 309 308 307 307 306 306 306 307 310 311 313 315 317 318 320 319 319 319 319 319 318 317 317 315 314 313 310 305 298
239 249 261 265 284 287 281 291 289 300 313 313 315 308 304 303 304 304 305 305 305 307 310 311 313 315 317 318 319 320 320 319 320 319 319 319 319 317 315 314 313 313 309 301
250 250 264 266 270 287 289 285 288 294 300 303 305 303 305 304 304 304 306 305 305 307 310 312 314 316 317 318 319 319 320 320 321 320 319 319 319 317 316 314 310 308 306 301
257 259 259 267 275 276 283 287 293 304 304 297 303 301 302 304 305 305 306 306 308 310 312 313 315 316 317 318 319 320 320 321 321 320 320 320 320 320 319 317 316 314 309 307
265 270 261 271 278 287 281 284 291 304 300 302 303 304 302 302 302 304 305 306 309 311 313 315 317 318 318 319 321 321 321 320 320 320 321 321 322 323 324 323 322 325 323 320
254 257 267 275 283 287 276 283 284 294 300 300 302 303 304 305 304 305 305 307 310 313 315 316 317 318 319 320 321 322 321 320 320 320 321 321 321 321 322 321 321 321 319 320
266 261 270 265 276 283 279 286 292 294 297 298 300 303 305 304 303 306 307 309 311 314 315 317 318 319 320 321 322 321 322 320 320 320 321 320 318 318 316 316 318 318 317 320
271 269 274 280 282 281 282 290 292 294 297 298 300 303 303 303 305 307 308 310 312 314 316 317 318 319 320 321 322 322 322 321 320 320 319 318 316 316 315 315 314 314 317 321
273 273 276 280 287 288 287 288 290 294 296 298 299 301 301 303 305 306 309 311 313 314 316 317 318 318 320 322 323 323 323 322 321 319 317 316 315 314 314 314 313 315 317 321
273 274 276 280 282 284 287 285 288 292 294 295 298 300 302 303 305 308 310 311 313 315 315 316 317 318 319 321 322 322 322 323 322 318 316 314 313 312 314 314 312 314 317 320